Content
SEND FEEDBACK

Daily
Averages
Monthly
Summary
Finland

HELSINKI, FINLAND


Home > Europe > Finland
Elevation: 184 feet     Latitude: 60 19N     Longitude: 024 58E

WEATHER
 
SELECT A DAY
Number of Records: 310,393;   Date Range: 7/1/96 - 7/10/14
 
SHARE

PRINT THIS DATA

[ ← Previous Day ]
WEATHER ALMANAC - FEBRUARY 18, 2013
[ Next Day → ]
[ °C ]   °F
Weather ElementAverageHighLow
Temperature29.2 °F30.2 °F (12:50 am)24.8 °F (9:50 pm)
Dewpoint27.5 °F30.2 °F (12:50 am)23 °F (9:20 pm)
Humidity93.6 %100 % (12:50 am)86 % (12:20 pm)
Barometer29.94 in30.04 in (12:50 am)29.89 in (1:50 pm)
Wind Speed7.7 mph13.4 mph (8:00 pm)
Weather ElementAverage
Visibility3.2 mi
Wind DirectionESE (118.4 °)

Weather ElementTotal
Precipitation---
Heating Degree Days37.5 (Base 65)
Averaged from 50 records on February 18, 2013
WEATHER CONDITIONS BREAKOUT
WIND DIRECTION BREAKOUT
WEATHER BY HOUR - FEBRUARY 18, 2013
[ °C ]   °F
Local TimeTemperatureDewpointHumidityBarometerVisibilityWind DirectionWind SpeedGust SpeedPrecipitationEventsConditions
12:50 AM30.2 °F30.2 °F100 %30.04 in2.5 miSSW (200°)5.8 mphSnowLight Snow
1:20 AM30.2 °F30.2 °F100 %30.04 in2.8 miSouth (190°)5.8 mphSnowLight Snow
1:50 AM30.2 °F30.2 °F100 %30.01 in2.8 miSouth (190°)5.8 mphSnowLight Snow
2:00 AM30.0 °F30.0 °F99 %30.04 in3.0 miSSW (210°)6.7 mphSnowLight Snow
2:20 AM30.2 °F30.2 °F100 %30.01 in3.1 miSSW (200°)4.6 mphSnowLight Snow
2:50 AM30.2 °F30.2 °F100 %30.01 in2.8 miSSW (200°)5.8 mphSnowLight Snow
3:20 AM30.2 °F30.2 °F100 %30.01 in3.1 miSouth (190°)5.8 mphSnowLight Snow
3:50 AM30.2 °F30.2 °F100 %29.98 in2.5 miSouth (190°)5.8 mphSnowLight Snow
4:20 AM30.2 °F30.2 °F100 %29.98 in2.5 miSouth (190°)5.8 mphSnowLight Snow
4:50 AM30.2 °F28.4 °F93 %29.98 in2.2 miSouth (180°)5.8 mphSnowLight Snow
5:20 AM30.2 °F28.4 °F93 %29.95 in2.2 miSouth (170°)4.6 mphSnowLight Snow
5:50 AM30.2 °F28.4 °F93 %29.95 in2.8 miSouth (170°)4.6 mphSnowLight Snow
6:20 AM30.2 °F28.4 °F93 %29.95 in3.1 miSouth (180°)6.9 mphSnowLight Snow
6:50 AM30.2 °F28.4 °F93 %29.95 in3.7 miSouth (180°)5.8 mphSnowLight Snow
7:20 AM30.2 °F28.4 °F93 %29.95 in1.9 miSouth (180°)5.8 mphSnowLight Snow
7:50 AM30.2 °F28.4 °F93 %29.95 in3.7 miSouth (180°)4.6 mphSnowLight Snow
8:00 AM29.0 °F29.0 °F100 %29.96 in4.0 miSouth (190°)4.5 mphSnowLight Snow
8:20 AM30.2 °F28.4 °F93 %29.95 in2.5 miSouth (170°)4.6 mphSnowLight Snow
8:50 AM30.2 °F28.4 °F93 %29.92 in2.5 miESE (120°)4.6 mphSnowLight Snow
9:20 AM30.2 °F28.4 °F93 %29.92 in2.8 miSE (130°)4.6 mphSnowLight Snow
9:50 AM30.2 °F28.4 °F93 %29.92 in2.8 miESE (120°)4.6 mphSnowLight Snow
10:20 AM30.2 °F28.4 °F93 %29.92 in3.1 miESE (120°)5.8 mphSnowLight Snow
10:50 AM30.2 °F28.4 °F93 %29.92 in3.1 miESE (120°)4.6 mphSnowLight Snow
11:20 AM30.2 °F28.4 °F93 %29.92 in3.1 miESE (110°)5.8 mphSnowLight Snow
11:50 AM30.2 °F28.4 °F93 %29.92 in6.2 miEast (90°)6.9 mphSnowLight Snow
12:20 PM30.2 °F26.6 °F86 %29.92 in6.2 miESE (110°)6.9 mphSnowLight Snow
12:50 PM30.2 °F28.4 °F93 %29.92 in5.0 miEast (100°)6.9 mphSnowLight Snow
1:20 PM30.2 °F28.4 °F93 %29.92 in3.7 miEast (90°)8.1 mphSnowLight Snow
1:50 PM30.2 °F28.4 °F93 %29.89 in2.2 miEast (90°)9.2 mphSnowLight Snow
2:20 PM30.2 °F28.4 °F93 %29.89 in2.5 miEast (90°)9.2 mphSnowLight Snow
2:50 PM30.2 °F26.6 °F86 %29.89 in2.2 miEast (80°)6.9 mphSnowLight Snow
3:20 PM30.2 °F28.4 °F93 %29.89 in3.1 miENE (70°)8.1 mphSnowLight Snow
3:50 PM30.2 °F28.4 °F93 %29.89 in1.9 miENE (70°)8.1 mphSnowLight Snow
4:20 PM30.2 °F28.4 °F93 %29.89 in2.8 miEast (80°)8.1 mphSnowLight Snow
4:50 PM30.2 °F26.6 °F86 %29.89 in2.8 miEast (80°)8.1 mphSnowLight Snow
5:20 PM28.4 °F26.6 °F93 %29.92 in1.9 miEast (80°)10.4 mphSnowLight Snow
5:50 PM28.4 °F26.6 °F93 %29.92 in3.1 miENE (70°)12.7 mphSnowLight Snow
6:20 PM28.4 °F26.6 °F93 %29.92 in3.7 miENE (70°)12.7 mphSnowLight Snow
6:50 PM28.4 °F26.6 °F93 %29.92 in3.7 miENE (70°)11.5 mphSnowLight Snow
7:20 PM26.6 °F24.8 °F93 %29.92 in3.7 miENE (60°)12.7 mphSnowLight Snow
7:50 PM26.6 °F24.8 °F93 %29.92 in2.5 miENE (60°)10.4 mphSnowLight Snow
8:00 PM26.0 °F25.0 °F94 %29.95 in2.0 miENE (70°)13.4 mphSnowLight Snow
8:20 PM26.6 °F24.8 °F93 %29.92 in2.5 miENE (60°)11.5 mphSnowLight Snow
8:50 PM26.6 °F24.8 °F93 %29.95 in2.5 miNE (50°)10.4 mphSnowLight Snow
9:20 PM26.6 °F23.0 °F86 %29.95 in3.1 miNE (50°)10.4 mphSnowLight Snow
9:50 PM24.8 °F23.0 °F93 %29.95 in3.1 miNE (50°)11.5 mphSnowLight Snow
10:20 PM24.8 °F23.0 °F93 %29.95 in4.3 miNE (50°)10.4 mphSnowLight Snow
10:50 PM26.6 °F23.0 °F86 %29.95 in6.2 miNE (50°)11.5 mphSnowLight Snow
11:20 PM26.6 °F23.0 °F86 %29.98 in6.2 miNE (50°)10.4 mphSnowLight Snow
11:50 PM26.6 °F24.8 °F93 %29.98 in6.2 miNE (50°)10.4 mphSnowLight Snow
Hourly data recorded from EFHK, located miles away from Helsinki, Finland







STORIES FROM OUR PARTNERS